This is the latest recevied weather packets stored in our database for station/object K3SV. If no packets are shown the sender has not sent any weather packets the latest 10 day(s).
| Time | Temp. | Humidity | Pressure | Rain* | Wind** | Luminosity | Snow |
|---|---|---|---|---|---|---|---|
| 1778096955 | 33.89° C | 44% | 1014.9 hPa | 0 mm | - | 602 W/m² | - |
| 1778096652 | 33.89° C | 43% | 1014.9 hPa | 0 mm | - | 287 W/m² | - |
| 1778096349 | 33.89° C | 45% | 1014.9 hPa | 0 mm | - | 622 W/m² | - |
| 1778096046 | 33.33° C | 45% | 1014.9 hPa | 0 mm | - | 642 W/m² | - |
| 1778095742 | 32.78° C | 47% | 1015.3 hPa | 0 mm | - | 604 W/m² | - |
| 1778095439 | 33.89° C | 45% | 1015.3 hPa | 0 mm | - | 608 W/m² | - |
| 1778095137 | 33.33° C | 45% | 1015.4 hPa | 0 mm | - | 609 W/m² | - |
| 1778094833 | 33.89° C | 45% | 1015.4 hPa | 0 mm | - | 654 W/m² | - |
| 1778094530 | 33.89° C | 44% | 1015.5 hPa | 0 mm | - | 685 W/m² | - |
| 1778094227 | 33.33° C | 46% | 1015.6 hPa | 0 mm | - | 652 W/m² | - |
| 1778093923 | 32.78° C | 46% | 1015.4 hPa | 0 mm | - | 645 W/m² | - |
| 1778093620 | 32.78° C | 47% | 1015.7 hPa | 0 mm | - | 697 W/m² | - |
| 1778093317 | 32.78° C | 49% | 1015.7 hPa | 0 mm | - | 738 W/m² | - |
| 1778093014 | 33.33° C | 47% | 1015.8 hPa | 0 mm | - | 392 W/m² | - |
| 1778092712 | 32.78° C | 48% | 1015.9 hPa | 0 mm | - | 682 W/m² | - |
| 1778092406 | 32.22° C | 48% | 1016 hPa | 0 mm | - | 735 W/m² | - |
| 1778092105 | 32.78° C | 46% | 1016 hPa | 0 mm | - | 630 W/m² | - |
| 1778091801 | 32.78° C | 46% | 1016.1 hPa | 0 mm | - | 722 W/m² | - |
| 1778091499 | 32.78° C | 48% | 1016 hPa | 0 mm | - | 707 W/m² | - |
| 1778091196 | 32.22° C | 49% | 1016.1 hPa | 0 mm | - | 722 W/m² | - |
| 1778090894 | 32.22° C | 48% | 1016.1 hPa | 0 mm | - | 750 W/m² | - |
| 1778090589 | 32.22° C | 48% | 1016.4 hPa | 0 mm | - | 745 W/m² | - |
| 1778090286 | 31.67° C | 49% | 1016.3 hPa | 0 mm | - | 625 W/m² | - |
| 1778089983 | 31.67° C | 50% | 1016.2 hPa | 0 mm | - | 703 W/m² | - |
| 1778089680 | 32.22° C | 50% | 1016.4 hPa | 0 mm | - | 684 W/m² | - |
* Rain latest hour (hover to see other rain measurements)
** Current wind speed in m/s (hover to see current wind gust speed)